User: anonymous   Login
Location: Carrizalito
(10.3833°N, 67.0217°W)
Time: 12:04:11
(UTC+00:00)
Language:

CUTE-I - Orbit

View from above orbital plane
View from above orbital plane
View from above satellite
View from above satellite

Ground track
Ground track

The orbit data is extracted from the following two-line orbital elements,

1 27844U 03031E   23086.88221587  .00000745  00000-0  35194-3 0  9993
2 27844  98.6811  95.3244 0009919   8.5981 351.5365 14.22698453 24172
Epoch (UTC): 27 March 2023 21:10:23
Eccentricity: 0.0009919
inclination: 98.6811°
perigee height: 809 km
apogee height: 823 km
right ascension of ascending node: 95.3244°
argument of perigee: 8.5981°
revolutions per day: 14.22698453
mean anomaly at epoch: 351.5365°
orbit number at epoch: 2417

The dashed part of the orbit path shows where the satellite is in the earth's shadow,  

DLR